Find Starlink 5280

NORAD ID: 54166 Int'l Des: 2022-141 Owner: SPXS Country: US Constellation: starlink operational
LEOCIRCULAR

当前视图

正在加载3D地球...

About Starlink 5280

Starlink 5280 (NORAD 54166) is a starlink constellation satellite (v1.5) launched Oct 28, 2022 by SPXS of US. It operates in LEO, CIRCULAR orbit with a mass of 305.00 kg.

关于 Starlink 5280

正在加载描述...

即将过境

Passes for default location (London). Set your location on the main map for personalized predictions.

高度历史

Loading altitude history...

两行轨道根数

1 54166U 22141K 26167.04211270 .00000450 00000-0 46342-4 0 9993
2 54166 53.1612 282.6388 0001058 84.1014 276.0098 15.08833430200707
Epoch: Jun 16, 2026 • Age: 11 hours

当前状态

高度 555.1 km
速度 7.58 km/s
星下点 -43.62°S, 67.07°E
发射日期 Oct 28, 2022
运行时间 3.6 years
类型 internet

技术详情

分类 Payload
质量 305.00 kg
干质量 290.00 kg
总质量 305.00 kg
长度 0.20 m
直径 2.80 m
跨度 9.00 m
形状 Box + pan
制造商 SPXS
平台类型 Starlink
阶段状态 In Orbit
所有者/国家 SPXS/US

Most Searched